Lander, WY

7:01 PM MDT on March 23, 2017 (GMT -0600)
Hunt

Weather History for KLND - March, 2012

Change the Weather History Date:

Sunday, March 25, 2012

  Actual Average Record
Temperature  
Mean Temperature 54 °F 38 °F  
Max Temperature 73 °F 51 °F 73 °F (2012)
Min Temperature 35 °F 26 °F -11 °F (1965)
Degree Days  
Heating Degree Days 11 27  
Month to date heating degree days 550 761  
Since 1 July heating degree days 5893 6465  
Cooling Degree Days 0 0  
Month to date cooling degree days 0 0  
Year to date cooling degree days 0 0  
Growing Degree Days 4 (Base 50)    
Moisture  
Dew Point 24 °F    
Average Humidity 39    
Maximum Humidity 64    
Minimum Humidity 14    
Precipitation  
Precipitation 0.00 in 0.04 in 1.28 in (1977)
Month to date precipitation 0.36 0.87  
Year to date precipitation 1.67 1.86  
Snow  
Snow 0.00 in 0.60 in - ()
Month to date snowfall 7.5 12.5  
Since 1 July snowfall 59.2 66.1  
Snow Depth 0.00 in    
Sea Level Pressure  
Sea Level Pressure 29.77 in    
Wind  
Wind Speed 7 mph (SSW)    
Max Wind Speed 20 mph    
Max Gust Speed 31 mph    
Visibility 10 miles    
Events      
T = Trace of Precipitation, MM = Missing Value Source: NWS Daily Summary

Daily Weather History Graph

Daily Weather History Graph

Search for Another Location

Airport or City:

Trip Planner

Search our weather history database for the weather conditions in past years. The results will help you decide how hot, cold, wet, or windy it might be!

Date:

Astronomy

Mar. 25, 2012 Rise Set
Actual Time 7:08 AM MDT 7:33 PM MDT
Civil Twilight 6:40 AM MDT 8:02 PM MDT
Nautical Twilight 6:06 AM MDT 8:35 PM MDT
Astronomical Twilight 5:32 AM MDT 9:09 PM MDT
Moon 8:17 AM MDT (3/25) 10:58 PM MDT (3/25)
Length of Visible Light 13h 21m
Length of Day
12h 25m
Waxing Crescent, 9% of the Moon is Illuminated
Mar 25
Waxing Crescent
Mar 30
First Quarter
Apr 6
Full
Apr 13
Last Quarter
Apr 21
New

Hourly Weather History & Observations

Time (MDT) Temp. Windchill Dew Point Humidity Pressure Visibility Wind Dir Wind Speed Gust Speed Precip Events Conditions
12:53 AM 53.1 °F - 23.0 °F 31% 29.84 in 10.0 mi NNW 11.5 mph - N/A   Clear
1:53 AM 48.0 °F - 25.0 °F 41% 29.84 in 10.0 mi NNW 8.1 mph - N/A   Clear
2:53 AM 48.9 °F - 26.1 °F 41% 29.83 in 10.0 mi Calm Calm - N/A   Clear
3:53 AM 46.0 °F 44.8 °F 26.1 °F 46% 29.82 in 10.0 mi South 3.5 mph - N/A   Clear
4:53 AM 43.0 °F 41.3 °F 26.1 °F 51% 29.82 in 10.0 mi West 3.5 mph - N/A   Clear
5:53 AM 43.0 °F 37.2 °F 26.1 °F 51% 29.84 in 10.0 mi WSW 10.4 mph - N/A   Clear
6:53 AM 39.9 °F 37.8 °F 26.1 °F 58% 29.86 in 10.0 mi SSE 3.5 mph - N/A   Clear
7:53 AM 37.9 °F 34.4 °F 26.1 °F 62% 29.91 in 10.0 mi West 4.6 mph - N/A   Clear
8:53 AM 43.0 °F 41.3 °F 27.0 °F 53% 29.91 in 10.0 mi Variable 3.5 mph - N/A   Clear
9:53 AM 48.0 °F - 30.0 °F 50% 29.86 in 10.0 mi Calm Calm - N/A   Clear
10:53 AM 55.0 °F - 28.9 °F 37% 29.83 in 10.0 mi Variable 3.5 mph - N/A   Clear
11:53 AM 60.1 °F - 28.9 °F 31% 29.79 in 10.0 mi Variable 3.5 mph - N/A   Clear
12:53 PM 63.0 °F - 28.9 °F 28% 29.76 in 10.0 mi Calm Calm - N/A   Clear
1:53 PM 68.0 °F - 28.9 °F 23% 29.73 in 10.0 mi NW 4.6 mph - N/A   Clear
2:53 PM 72.0 °F - 21.0 °F 15% 29.68 in 10.0 mi South 13.8 mph 21.9 mph N/A   Clear
3:53 PM 70.0 °F - 17.1 °F 13% 29.68 in 10.0 mi SSW 18.4 mph 29.9 mph N/A   Partly Cloudy
4:53 PM 69.1 °F - 19.9 °F 15% 29.69 in 10.0 mi South 18.4 mph - N/A   Clear
5:53 PM 68.0 °F - 19.9 °F 16% 29.68 in 10.0 mi South 19.6 mph 29.9 mph N/A   Clear
6:53 PM 63.0 °F - 21.0 °F 20% 29.71 in 10.0 mi South 13.8 mph - N/A   Clear
7:53 PM 60.1 °F - 18.0 °F 20% 29.72 in 10.0 mi SSE 3.5 mph - N/A   Clear
8:53 PM 62.1 °F - 17.1 °F 18% 29.68 in 10.0 mi Calm Calm - N/A   Clear
9:53 PM 57.0 °F - 19.0 °F 23% 29.68 in 10.0 mi ESE 6.9 mph - N/A   Clear
10:53 PM 55.0 °F - 19.9 °F 25% 29.65 in 10.0 mi SE 3.5 mph - N/A   Clear
11:53 PM 57.0 °F - 19.9 °F 24% 29.60 in 10.0 mi Variable 4.6 mph - N/A   Clear